[[{"header":{"parameterUnit":"m.s-1","parameterCategory":1,"la1":30.2991,"la2":30.254,"lo1":-89.0895,"lo2":-89.0444,"dy":0.0017,"dx":0.0017,"nx":28,"ny":28,"refTime":"2024-04-13T21:00:00:Z","depth":0,"parameterNumber":2,"parameterNumberName":"U-component_of_WINDS"},"data":[0,0,0,0,0,0,0,0,0,0,0,0,0,0,0,0,0,0,0,0,0,0,0,0,0,0,0,0,0,0,0,0,0,0,0,0,0,0,0,0,0,0,0,0,0,0,0,0,0,0,0,0,0,0,0,0,0,0,0.8494,0.8495,0,0.8599,0.86,0.8601,0.8637,0.8637,0.8637,0.8636,0.8743,0.8746,0.8749,0,0,0,0,0,0,0,0,0,0,0,0,0,0.8324,0.8327,0.8494,0.8495,0.8497,0.8598,0.86,0.8601,0.8638,0.8637,0.8637,0.8636,0.8742,0.8746,0.8749,0,0,0,0,0,0,0,0,0,0,0,0,0,0.841,0.8328,0.8494,0.8527,0.8531,0.8598,0.86,0.8602,0.8638,0.8637,0.8636,0.8636,0.874,0.8745,0.875,0.8791,0,0,0.8765,0.8767,0,0,0,0,0,0,0,0,0.8405,0.8417,0.8521,0.8525,0.853,0.8604,0.8579,0.8665,0.8638,0.8597,0.8636,0.8636,0.8697,0.8706,0.8726,0.8796,0.8801,0.8765,0.8768,0.877,0.8771,0,0,0,0,0,0,0,0.8399,0.8412,0.8535,0.8522,0.8528,0.8536,0.8548,0.8596,0.8649,0.8601,0.8604,0.8615,0.8699,0.8722,0.8729,0.8803,0.8765,0.8769,0.8772,0.8774,0.891,0.8911,0,0,0,0,0,0,0.8388,0.8407,0.8532,0.8539,0.8465,0.854,0.8553,0.8581,0.8649,0.8659,0.8616,0.8617,0.8714,0.8724,0.8733,0.8785,0.877,0.8774,0.8777,0.891,0.8911,0.8911,0,0,0,0,0,0,0.8384,0.8399,0.8528,0.8474,0.8491,0.8543,0.8575,0.8583,0.8606,0.866,0.867,0.8629,0.8714,0.8726,0.8776,0.8789,0.8777,0.8781,0.8909,0.891,0.8911,0.889,0,0,0,0,0,0,0.8379,0.8397,0.8414,0.8474,0.8494,0.857,0.8576,0.8586,0.8614,0.8616,0.8675,0.8684,0.8714,0.8769,0.8781,0.8796,0.8785,0.8908,0.8909,0.8911,0.889,0.8891,0.8891,0,0,0,0,0,0.8373,0.8404,0.8415,0.843,0.8516,0.8571,0.8582,0.8616,0.8615,0.8632,0.8667,0.8682,0.8786,0.8774,0.8788,0.8804,0.8907,0.8909,0.8911,0.889,0.8891,0.8891,0,0,0,0,0,0,0.8345,0.8413,0.8425,0.8477,0.8517,0.8577,0.8599,0.8616,0.8658,0.8658,0.8698,0.8711,0.8758,0.8786,0.8771,0.8847,0.8848,0.8852,0.8827,0.8828,0.8828,0.882,0.8789,0,0,0,0,0,0.8345,0.8384,0.8441,0.8481,0.8501,0.8546,0.8571,0.8594,0.8638,0.8655,0.8694,0.8736,0.8778,0.8805,0.8846,0.8894,0.8907,0.8912,0.8913,0.8913,0.8916,0.8943,0.8945,0.8917,0.8917,0.8917,0,0,0.8344,0.8386,0.8409,0.8476,0.8511,0.855,0.8561,0.8602,0.8631,0.8662,0.8711,0.8741,0.879,0.8839,0.8862,0.8864,0.8927,0.8915,0.8915,0.8918,0.8945,0.8947,0.895,0.8918,0.8918,0.8918,0,0,0.8364,0.84,0.8437,0.8471,0.8523,0.8553,0.8561,0.8618,0.8638,0.8689,0.8712,0.8747,0.8819,0.8853,0.8879,0.891,0.8926,0.8923,0.8925,0.895,0.8953,0.8955,0.8965,0.8968,0.8926,0.8926,0.8926,0,0.8357,0.8418,0.8454,0.8493,0.8522,0.8551,0.8588,0.8619,0.8682,0.87,0.8701,0.8791,0.8826,0.8883,0.889,0.8911,0.8922,0.8916,0.8949,0.8952,0.8954,0.8965,0.8968,0.8925,0.8925,0.8925,0.8925,0,0.8406,0.8448,0.8471,0.853,0.8562,0.86,0.864,0.8668,0.8687,0.8717,0.8767,0.881,0.886,0.8875,0.8895,0.8935,0.8934,0.8942,0.8943,0.8956,0.8966,0.897,0.8924,0.8924,0.8924,0.8925,0,0,0.8411,0.8489,0.8497,0.8524,0.8583,0.8615,0.8654,0.8703,0.8725,0.8767,0.88,0.886,0.8867,0.8897,0.8921,0.8943,0.8963,0.8948,0.895,0.8949,0.9008,0.9002,0.9006,0.8974,0.8975,0.8976,0.9004,0,0.8438,0.8509,0.8542,0.8598,0.8636,0.8664,0.8698,0.8737,0.8765,0.8801,0.8833,0.8874,0.8881,0.8899,0.8922,0.8956,0.8976,0.8954,0.9005,0.9006,0.8991,0.9011,0.9005,0.9029,0.9008,0.9009,0.901,0,0.8479,0.852,0.858,0.8633,0.8651,0.868,0.8728,0.8762,0.8807,0.8826,0.8858,0.8881,0.8922,0.892,0.8977,0.8962,0.8984,0.9004,0.9006,0.9011,0.9008,0.9017,0.9038,0.9041,0.9016,0.9016,0.9015,0,0.8475,0.8546,0.8591,0.8613,0.8677,0.8697,0.8724,0.8768,0.8795,0.8836,0.8854,0.89,0.8924,0.8959,0.8992,0.8988,0.9046,0.9047,0.9062,0.9061,0.9073,0.9071,0.9097,0.9088,0.9088,0.9088,0.9088,0,0.8501,0.8537,0.859,0.8618,0.8658,0.8695,0.8733,0.8763,0.8801,0.8834,0.8861,0.8892,0.8935,0.8971,0.8998,0.904,0.9051,0.9067,0.9074,0.9065,0.9062,0.908,0.9078,0.9089,0.9089,0.9088,0.9088,0,0.8504,0.8542,0.8592,0.8648,0.8662,0.8689,0.8737,0.8764,0.8793,0.8835,0.8847,0.8893,0.8936,0.8973,0.9031,0.9049,0.9092,0.91,0.9077,0.908,0.9093,0.9091,0.913,0.9137,0.9123,0.9124,0.9124,0,0.8518,0.8546,0.8604,0.8628,0.8655,0.8694,0.8721,0.8758,0.8786,0.8838,0.8859,0.8904,0.8943,0.901,0.9049,0.9092,0.9101,0.9112,0.9108,0.9098,0.9101,0.9098,0.9101,0.9112,0.9112,0.9112,0.9112,0,0.8538,0.8555,0.8594,0.8639,0.8671,0.8709,0.8747,0.8765,0.8809,0.8838,0.8883,0.8912,0.8971,0.9015,0.9062,0.909,0.9108,0.9113,0.9119,0.9109,0.9094,0.9102,0.9076,0.9112,0.9112,0.9112,0.9112,0.9112,0.8547,0.8572,0.8617,0.8659,0.8692,0.8726,0.8754,0.8787,0.8825,0.8875,0.8894,0.894,0.8983,0.9049,0.9076,0.9112,0.9115,0.9123,0.9125,0.9126,0.9124,0.9089,0.9121,0.9121,0.9121,0.9121,0.9121,0,0.8567,0.8597,0.8636,0.8688,0.8721,0.8735,0.8778,0.8804,0.8844,0.8882,0.8919,0.897,0.9013,0.9054,0.9099,0.9119,0.9128,0.913,0.9128,0.9134,0.912,0.911,0.9121,0.9121,0.9121,0.9121,0.9121,0.9121,0.8582,0.8626,0.8648,0.8707,0.8737,0.8782,0.8805,0.8837,0.8868,0.8923,0.8959,0.8985,0.9025,0.9073,0.9112,0.9123,0.9138,0.9137,0.915,0.9136,0.9135,0.9135,0.9126,0.914,0.914,0.9162,0.9162,0.9162]},{"header":{"parameterUnit":"m.s-1","parameterCategory":1,"la1":30.2991,"la2":30.254,"lo1":-89.0895,"lo2":-89.0444,"dy":0.0017,"dx":0.0017,"nx":28,"ny":28,"refTime":"2024-04-13T21:00:00:Z","depth":0,"parameterNumber":3,"parameterNumberName":"V-component_of_WINDS"},"data":[0,0,0,0,0,0,0,0,0,0,0,0,0,0,0,0,0,0,0,0,0,0,0,0,0,0,0,0,0,0,0,0,0,0,0,0,0,0,0,0,0,0,0,0,0,0,0,0,0,0,0,0,0,0,0,0,0,0,2.6542,2.6542,0,2.6484,2.6483,2.6483,2.6403,2.6402,2.6401,2.6399,2.634,2.634,2.6339,0,0,0,0,0,0,0,0,0,0,0,0,0,2.6584,2.6584,2.6542,2.6542,2.6541,2.6484,2.6483,2.6483,2.6403,2.6402,2.64,2.6399,2.634,2.634,2.6339,0,0,0,0,0,0,0,0,0,0,0,0,0,2.655,2.6584,2.6542,2.6494,2.649,2.6484,2.6483,2.6482,2.6404,2.6402,2.64,2.6398,2.634,2.634,2.6339,2.6376,0,0,2.6338,2.6337,0,0,0,0,0,0,0,0,2.6552,2.6549,2.6502,2.6498,2.6492,2.6449,2.6476,2.6447,2.6404,2.6436,2.6399,2.6397,2.6378,2.6374,2.6368,2.6373,2.6371,2.6338,2.6337,2.6337,2.6337,0,0,0,0,0,0,0,2.6555,2.6551,2.6519,2.6502,2.6496,2.6476,2.6469,2.647,2.6419,2.6433,2.6428,2.6422,2.6375,2.6368,2.6366,2.637,2.6338,2.6337,2.6337,2.6337,2.6401,2.6403,0,0,0,0,0,0,2.6564,2.6553,2.6521,2.6517,2.6518,2.6477,2.6469,2.6465,2.6419,2.641,2.6423,2.6418,2.637,2.6366,2.6363,2.6402,2.6337,2.6337,2.6336,2.6399,2.6402,2.6404,0,0,0,0,0,0,2.6565,2.6562,2.6523,2.6534,2.6527,2.6478,2.6474,2.6465,2.6458,2.6411,2.6402,2.6426,2.6368,2.6364,2.6373,2.6399,2.6336,2.6336,2.6397,2.64,2.6403,2.6481,0,0,0,0,0,0,2.6567,2.6563,2.6577,2.6535,2.6527,2.6535,2.6476,2.6465,2.6457,2.645,2.6411,2.6403,2.6366,2.6374,2.6373,2.6397,2.6336,2.6394,2.6398,2.6402,2.6476,2.6487,2.6496,0,0,0,0,0,2.6569,2.6602,2.6578,2.6574,2.6543,2.6537,2.6532,2.6489,2.646,2.6473,2.6443,2.6404,2.6397,2.6376,2.6373,2.6398,2.6393,2.6397,2.6402,2.6472,2.6485,2.6495,0,0,0,0,0,0,2.6648,2.6595,2.6568,2.6589,2.6568,2.6523,2.6538,2.6504,2.6491,2.6485,2.6432,2.6424,2.644,2.642,2.6398,2.6431,2.6389,2.6393,2.6443,2.6455,2.6464,2.6468,2.6335,0,0,0,0,0,2.6668,2.6667,2.6621,2.6643,2.6634,2.6588,2.6584,2.6552,2.6529,2.6519,2.649,2.6468,2.646,2.6457,2.6447,2.6473,2.6463,2.6489,2.6498,2.6507,2.6511,2.6521,2.6532,2.6419,2.6419,2.6419,0,0,2.6709,2.668,2.6683,2.6658,2.6638,2.6638,2.6581,2.6584,2.6583,2.652,2.6526,2.6504,2.6476,2.6493,2.65,2.6477,2.654,2.6512,2.6519,2.6519,2.6527,2.6538,2.6547,2.6422,2.6421,2.6421,0,0,2.6784,2.6762,2.6778,2.6759,2.6729,2.6698,2.6702,2.6663,2.6645,2.6651,2.6603,2.6601,2.659,2.6571,2.656,2.6627,2.6591,2.6625,2.6676,2.6687,2.6696,2.6703,2.6726,2.6734,2.663,2.663,2.663,0,2.6839,2.6836,2.679,2.6795,2.6785,2.6728,2.6743,2.6726,2.6696,2.669,2.6665,2.6649,2.6626,2.6638,2.6654,2.6647,2.6649,2.6629,2.6698,2.6705,2.6712,2.6732,2.6741,2.6634,2.6634,2.6633,2.6633,0,2.6904,2.6904,2.692,2.6891,2.6883,2.6893,2.6848,2.6845,2.6814,2.6786,2.6792,2.6763,2.6746,2.6746,2.6717,2.6753,2.674,2.6708,2.6664,2.6728,2.6746,2.6754,2.6641,2.6639,2.6638,2.6637,0,0,2.7027,2.6972,2.6978,2.6964,2.6927,2.6925,2.6932,2.6915,2.6914,2.6894,2.6898,2.6889,2.6858,2.6846,2.6814,2.6824,2.6877,2.679,2.6788,2.6806,2.6913,2.6937,2.6947,2.6853,2.6854,2.6855,2.6915,0,2.7093,2.7102,2.7061,2.708,2.7078,2.7023,2.7029,2.7007,2.6981,2.6975,2.6945,2.6939,2.69,2.6892,2.69,2.6869,2.6897,2.6864,2.6855,2.6855,2.6862,2.6957,2.6982,2.704,2.6922,2.6923,2.6924,0,2.7172,2.7156,2.7176,2.7136,2.7134,2.714,2.712,2.7116,2.7089,2.7069,2.7055,2.7018,2.7021,2.698,2.6983,2.6962,2.6955,2.694,2.6941,2.6937,2.6893,2.6955,2.7058,2.7066,2.6935,2.6935,2.6934,0,2.7258,2.7242,2.7251,2.724,2.7195,2.72,2.7182,2.7153,2.7145,2.7128,2.7122,2.7106,2.7097,2.7084,2.7043,2.7018,2.7051,2.7007,2.7033,2.7034,2.7042,2.7042,2.7144,2.704,2.704,2.704,2.704,0,2.7336,2.7349,2.7288,2.7294,2.7307,2.7259,2.7274,2.725,2.7224,2.7223,2.7175,2.7176,2.7122,2.7116,2.7084,2.709,2.7087,2.707,2.7061,2.7074,2.7076,2.7068,2.7062,2.7042,2.7042,2.7041,2.7041,0,2.7433,2.7393,2.7399,2.7356,2.7345,2.7357,2.7319,2.7322,2.7293,2.7293,2.729,2.7243,2.7234,2.7191,2.7172,2.715,2.7167,2.715,2.7176,2.717,2.7198,2.7196,2.7298,2.7309,2.72,2.7201,2.7202,0,2.7485,2.7494,2.7452,2.7448,2.7431,2.7426,2.7417,2.737,2.7363,2.7332,2.7339,2.7325,2.7312,2.7299,2.7263,2.7247,2.7229,2.7266,2.7226,2.7238,2.7228,2.7227,2.7227,2.7274,2.7276,2.7277,2.7278,0,2.7581,2.756,2.755,2.7533,2.7524,2.7508,2.7489,2.7488,2.7436,2.743,2.742,2.7409,2.7389,2.7376,2.7354,2.7334,2.7297,2.7291,2.7296,2.7308,2.7322,2.7314,2.7198,2.7289,2.7287,2.7287,2.7286,2.7286,2.7656,2.7661,2.7631,2.7621,2.7602,2.7585,2.7586,2.7556,2.7546,2.7526,2.7499,2.7492,2.7463,2.743,2.7413,2.7406,2.7385,2.7393,2.7394,2.7397,2.7402,2.7324,2.7402,2.7401,2.7401,2.7401,2.74,0,2.7748,2.7726,2.7717,2.7692,2.7684,2.765,2.7627,2.7622,2.7617,2.7593,2.7581,2.7568,2.7555,2.7518,2.75,2.7502,2.7484,2.7499,2.7498,2.7493,2.7422,2.7419,2.7513,2.7513,2.7513,2.7513,2.7513,2.7513,2.7794,2.7801,2.7777,2.7773,2.7751,2.7743,2.7733,2.7717,2.7698,2.7686,2.7674,2.765,2.7621,2.7601,2.7587,2.7576,2.7571,2.7591,2.7575,2.7509,2.7499,2.7488,2.7485,2.7591,2.7591,2.7646,2.7646,2.7647]}]]